User: anonymous
Location: Unspecified
(0.0000°N, 0.0000°E)
Time: 10:15:45
(UTC+00:00)
Language:

CLOUDSAT - Orbit

View from above orbital plane
View from above orbital plane
View from above satellite
View from above satellite

Ground track
Ground track

The orbit data is extracted from the following two-line orbital elements,

1 29107U 06016A   14110.16681199  .00000916  00000-0  21326-3 0  6169
2 29107 098.1943 054.8839 0001779 071.3321 288.8074 14.57116024424382
Epoch (UTC): 20 April 2014 04:00:12
Eccentricity: 0.0001779
inclination: 98.1943°
perigee height: 701 km
apogee height: 704 km
right ascension of ascending node: 54.8839°
argument of perigee: 71.3321°
revolutions per day: 14.57116024
mean anomaly at epoch: 288.8074°
orbit number at epoch: 42438

The dashed part of the orbit path shows where the satellite is in the earth's shadow,  

DLR